[[[{"header":{"parameterUnit":"kt","parameterCategory":2,"dx":1,"dy":1,"la1":30.253999710083008,"la2":30.299108505249023,"lo1":-89.0895004272461,"lo2":-89.04439544677734,"nx":28,"ny":28,"refTime":"2022-10-27T21:00:00:Z","depth":0,"parameterNumber":1,"parameterNumberName":"U-component_of_WINDS"},"data":[-10.7095,-10.7324,-10.7345,-10.7616,-10.768,-10.7867,-10.794,-10.8036,-10.8117,-10.8343,-10.8475,-10.8516,-10.8601,-10.8762,-10.8905,-10.8918,-10.8976,-10.9049,-10.9051,-10.8715,-10.8669,-10.8626,-10.8571,-10.9063,-10.9063,-10.9394,-10.9397,-10.9399,-10.6864,-10.693,-10.7078,-10.7233,-10.736,-10.7306,-10.7423,-10.7532,-10.77,-10.78,-10.7929,-10.8127,-10.8284,-10.8343,-10.8496,-10.8603,-10.8581,-10.8643,-10.8632,-10.8645,-10.8289,-10.8232,-10.8659,-10.8659,-10.8659,-10.8659,-10.8659,-10.8658,-10.6446,-10.6582,-10.6685,-10.6844,-10.6927,-10.703,-10.7162,-10.7206,-10.7348,-10.7509,-10.7499,-10.7687,-10.7786,-10.7973,-10.8038,-10.8185,-10.8117,-10.8186,-10.8203,-10.8219,-10.8237,-10.776,-10.8211,-10.821,-10.8209,-10.8208,-10.8207,0,-10.6143,-10.6149,-10.6288,-10.6436,-10.6551,-10.6665,-10.677,-10.6852,-10.686,-10.6977,-10.7146,-10.7244,-10.744,-10.7598,-10.7741,-10.7792,-10.7735,-10.7731,-10.7779,-10.7783,-10.7775,-10.7781,-10.7198,-10.7714,-10.771,-10.7707,-10.7705,-10.7703,-10.5719,-10.5874,-10.5985,-10.6082,-10.6141,-10.6295,-10.6389,-10.6384,-10.6483,-10.661,-10.6728,-10.6887,-10.7012,-10.7277,-10.7316,-10.746,-10.7431,-10.7628,-10.7451,-10.7456,-10.7432,-10.7421,-10.7437,-10.7659,-10.7665,-10.7669,-10.7673,0,-10.548,-10.5501,-10.5743,-10.5834,-10.5862,-10.6024,-10.61,-10.6233,-10.6256,-10.6441,-10.6484,-10.6518,-10.668,-10.6688,-10.6872,-10.6871,-10.714,-10.7111,-10.7109,-10.7102,-10.7277,-10.7259,-10.7845,-10.7922,-10.7416,-10.7421,-10.7425,0,-10.5123,-10.5324,-10.5342,-10.5481,-10.5707,-10.5691,-10.5914,-10.5953,-10.6033,-10.6178,-10.6116,-10.6254,-10.6239,-10.6379,-10.6376,-10.6597,-10.6631,-10.6641,-10.6637,-10.6644,-10.6642,-10.6688,-10.6662,-10.6622,-10.6619,-10.6617,-10.6614,0,-10.474,-10.4982,-10.5209,-10.5266,-10.5376,-10.5484,-10.5534,-10.5619,-10.5708,-10.5825,-10.5883,-10.602,-10.6093,-10.6201,-10.6194,-10.6074,-10.6464,-10.6297,-10.6473,-10.6474,-10.6551,-10.6545,-10.7071,-10.6611,-10.661,-10.6609,-10.6608,0,-10.4449,-10.4569,-10.4893,-10.4983,-10.5046,-10.5194,-10.5326,-10.5454,-10.5548,-10.5554,-10.5645,-10.5598,-10.579,-10.5626,-10.589,-10.5736,-10.5813,-10.584,-10.5853,-10.5863,-10.5675,-10.5966,-10.647,-10.6521,-10.5886,-10.588,-10.5874,0,-10.4006,-10.4335,-10.432,-10.4628,-10.4779,-10.4696,-10.486,-10.4942,-10.4964,-10.5095,-10.5118,-10.5265,-10.5143,-10.5187,-10.532,-10.5346,-10.5547,-10.532,-10.5506,-10.5513,-10.5481,-10.5946,-10.6016,-10.6361,-10.5797,-10.5805,-10.5811,0,-10.3661,-10.3788,-10.3843,-10.3906,-10.4009,-10.4133,-10.4322,-10.4463,-10.4551,-10.4647,-10.4803,-10.5009,-10.4925,-10.4998,-10.4971,-10.5108,-10.5411,-10.4996,-10.4997,-10.5069,-10.5758,-10.5825,-10.5883,-10.5363,-10.5373,-10.538,-10.575,0,-10.3217,-10.3379,-10.3529,-10.3663,-10.3759,-10.3948,-10.3947,-10.4049,-10.4014,-10.4028,-10.4256,-10.4316,-10.4454,-10.4519,-10.4482,-10.4792,-10.4738,-10.4644,-10.4475,-10.4782,-10.4903,-10.4953,-10.4296,-10.4291,-10.4287,-10.4283,0,0,-10.2785,-10.3015,-10.2985,-10.3163,-10.3241,-10.3144,-10.3346,-10.3411,-10.3539,-10.3595,-10.3504,-10.3799,-10.3849,-10.4124,-10.422,-10.4275,-10.4329,-10.4218,-10.4636,-10.4676,-10.4712,-10.4842,-10.4894,-10.4276,-10.4274,-10.4273,-10.4271,0,-10.2619,-10.2677,-10.2876,-10.2942,-10.3036,-10.3039,-10.3088,-10.3161,-10.3177,-10.3397,-10.3308,-10.3443,-10.3674,-10.3741,-10.3804,-10.4189,-10.4109,-10.4232,-10.444,-10.4594,-10.4639,-10.4679,-10.4816,-10.4866,-10.4261,-10.4262,-10.4262,0,-10.2276,-10.2332,-10.2426,-10.2596,-10.2654,-10.2808,-10.2635,-10.2802,-10.2916,-10.2789,-10.3007,-10.3038,-10.3123,-10.3382,-10.3497,-10.3414,-10.3911,-10.375,-10.3777,-10.3786,-10.3935,-10.399,-10.4038,-10.3402,-10.3398,-10.3396,0,0,-10.2132,-10.228,-10.2329,-10.2558,-10.2602,-10.2607,-10.2686,-10.2655,-10.2734,-10.2765,-10.28,-10.2879,-10.3014,-10.3102,-10.3227,-10.3512,-10.3526,-10.3645,-10.3685,-10.3719,-10.3747,-10.3904,-10.3958,-10.3385,-10.3384,-10.3384,0,0,-10.206,-10.2127,-10.2075,-10.2341,-10.2422,-10.248,-10.262,-10.2557,-10.2668,-10.2644,-10.2596,-10.2614,-10.2855,-10.2886,-10.2739,-10.3166,-10.3,-10.3035,-10.3135,-10.3186,-10.3226,-10.321,-10.2561,0,0,0,0,0,-10.1884,-10.2119,-10.2072,-10.2116,-10.2322,-10.2508,-10.2534,-10.2501,-10.2387,-10.25,-10.2519,-10.2427,-10.2798,-10.2666,-10.2709,-10.287,-10.3241,-10.3266,-10.329,-10.3486,-10.354,-10.3585,0,0,0,0,0,0,-10.1901,-10.1954,-10.2066,-10.2136,-10.2181,-10.2499,-10.2298,-10.2295,-10.2373,-10.2353,-10.2427,-10.243,-10.2402,-10.2642,-10.2681,-10.2835,-10.2547,-10.3251,-10.3272,-10.3292,-10.3504,-10.3548,-10.3586,0,0,0,0,0,-10.1914,-10.1956,-10.2297,-10.2132,-10.2172,-10.2185,-10.2289,-10.2285,-10.2344,-10.2371,-10.2371,-10.2312,-10.2408,-10.2438,-10.2665,-10.2818,-10.252,-10.2535,-10.3265,-10.3282,-10.3297,-10.3526,0,0,0,0,0,0,-10.1924,-10.1954,-10.2304,-10.2315,-10.2038,-10.2166,-10.2185,-10.2276,-10.2355,-10.2358,-10.2252,-10.2235,-10.2415,-10.2436,-10.246,-10.2815,-10.2498,-10.2513,-10.2522,-10.3278,-10.3291,-10.3303,0,0,0,0,0,0,-10.193,-10.1964,-10.231,-10.2193,-10.2191,-10.2149,-10.2166,-10.2351,-10.2358,-10.2231,-10.222,-10.2244,-10.2377,-10.2437,-10.2455,-10.2745,-10.2481,-10.2495,-10.2505,-10.2511,-10.3289,-10.3299,0,0,0,0,0,0,-10.1944,-10.1972,-10.219,-10.2188,-10.2185,-10.2305,-10.2311,-10.2524,-10.2262,-10.2229,-10.2237,-10.2225,-10.2381,-10.2398,-10.2452,-10.2735,-10.2743,-10.2482,-10.2491,-10.2498,-10.2503,0,0,0,0,0,0,0,-10.1955,-10.1771,-10.224,-10.2184,-10.2181,-10.2416,-10.2419,-10.2422,-10.2259,-10.2249,-10.2239,-10.223,-10.24,-10.2415,-10.2431,-10.2728,0,0,-10.248,-10.2487,0,0,0,0,0,0,0,0,-10.1759,-10.1768,-10.224,-10.2243,-10.2245,-10.2417,-10.2419,-10.2421,-10.2258,-10.225,-10.2242,-10.2234,-10.2404,-10.2417,-10.2429,0,0,0,0,0,0,0,0,0,0,0,0,0,0,0,-10.224,-10.2242,0,-10.2417,-10.2419,-10.2421,-10.2256,-10.225,-10.2243,-10.2237,-10.2408,-10.2418,-10.2428,0,0,0,0,0,0,0,0,0,0,0,0,0,0,0,0,0,0,0,0,0,0,0,0,0,0,0,0,0,0,0,0,0,0,0,0,0,0,0,0,0,0,0,0,0,0,0,0,0,0,0,0,0,0,0,0,0,0,0,0,0,0,0,0,0,0,0,0,0]}],[{"header":{"parameterUnit":"kt","parameterCategory":2,"dx":1,"dy":1,"la1":30.253999710083008,"la2":30.299108505249023,"lo1":-89.0895004272461,"lo2":-89.04439544677734,"nx":28,"ny":28,"refTime":"2022-10-27T21:00:00:Z","depth":0,"parameterNumber":2,"parameterNumberName":"V-component_of_WINDS"},"data":[-1.4434,-1.4522,-1.4561,-1.4678,-1.4732,-1.4817,-1.486,-1.4918,-1.4973,-1.5077,-1.5142,-1.5186,-1.5253,-1.5338,-1.5408,-1.5425,-1.5452,-1.5456,-1.5475,-1.5427,-1.5423,-1.5418,-1.5402,-1.5461,-1.5461,-1.552,-1.5521,-1.5521,-1.4397,-1.4452,-1.4526,-1.4623,-1.4686,-1.4706,-1.4783,-1.4833,-1.4907,-1.4975,-1.5042,-1.5134,-1.521,-1.5277,-1.5355,-1.5393,-1.5406,-1.5412,-1.5409,-1.5419,-1.5369,-1.5351,-1.5401,-1.5401,-1.5401,-1.5401,-1.5401,-1.5401,-1.4339,-1.439,-1.4473,-1.4553,-1.4611,-1.4675,-1.4729,-1.4784,-1.4854,-1.4944,-1.4973,-1.5056,-1.5129,-1.524,-1.5286,-1.5349,-1.5348,-1.5365,-1.537,-1.5373,-1.5373,-1.5284,-1.5364,-1.5364,-1.5364,-1.5364,-1.5364,0,-1.431,-1.4339,-1.4412,-1.4497,-1.4556,-1.4624,-1.4692,-1.4726,-1.4797,-1.4851,-1.4932,-1.4984,-1.5085,-1.5162,-1.5243,-1.5286,-1.5309,-1.5314,-1.5326,-1.5314,-1.5294,-1.5306,-1.5223,-1.5311,-1.5311,-1.5311,-1.5311,-1.531,-1.4255,-1.4309,-1.4413,-1.4459,-1.4506,-1.4578,-1.4628,-1.4687,-1.4737,-1.4827,-1.4866,-1.4946,-1.5012,-1.5131,-1.519,-1.5264,-1.5275,-1.5305,-1.5286,-1.5272,-1.5276,-1.5272,-1.5278,-1.5307,-1.5308,-1.5308,-1.5308,0,-1.422,-1.4284,-1.438,-1.4476,-1.4502,-1.4554,-1.4635,-1.4686,-1.4733,-1.481,-1.483,-1.4903,-1.4979,-1.5034,-1.5129,-1.5155,-1.5238,-1.5247,-1.5215,-1.522,-1.5252,-1.5249,-1.5349,-1.5365,-1.5304,-1.5304,-1.5305,0,-1.4198,-1.4266,-1.4356,-1.4408,-1.4486,-1.4544,-1.4618,-1.4666,-1.4731,-1.4792,-1.4828,-1.4883,-1.4945,-1.5007,-1.5045,-1.5123,-1.5141,-1.5165,-1.5174,-1.5162,-1.5159,-1.5187,-1.5184,-1.5192,-1.5192,-1.5191,-1.5191,0,-1.4137,-1.4265,-1.435,-1.4389,-1.4497,-1.4535,-1.4581,-1.4654,-1.4702,-1.4771,-1.4802,-1.4878,-1.4919,-1.4976,-1.5025,-1.501,-1.5121,-1.511,-1.5145,-1.5144,-1.5166,-1.5164,-1.524,-1.519,-1.519,-1.519,-1.519,0,-1.4128,-1.4203,-1.4317,-1.4408,-1.4439,-1.4493,-1.4575,-1.4635,-1.4708,-1.4738,-1.4792,-1.4822,-1.4895,-1.4881,-1.4981,-1.4948,-1.4986,-1.5015,-1.5019,-1.5028,-1.5011,-1.5047,-1.5113,-1.5122,-1.5037,-1.5036,-1.5035,0,-1.4042,-1.4174,-1.4226,-1.4332,-1.4401,-1.444,-1.4501,-1.4566,-1.461,-1.4672,-1.4719,-1.4789,-1.479,-1.4819,-1.4861,-1.4912,-1.4954,-1.4907,-1.4992,-1.4995,-1.4973,-1.5035,-1.5032,-1.5093,-1.502,-1.5021,-1.5022,0,-1.3983,-1.4116,-1.4131,-1.4179,-1.4276,-1.4333,-1.4403,-1.4487,-1.4526,-1.4593,-1.4653,-1.475,-1.4756,-1.4803,-1.4834,-1.4875,-1.4927,-1.4875,-1.4877,-1.4882,-1.5016,-1.5013,-1.5023,-1.4939,-1.4941,-1.4942,-1.501,0,-1.3956,-1.403,-1.4074,-1.4176,-1.4229,-1.4298,-1.4361,-1.4407,-1.4435,-1.448,-1.4567,-1.4632,-1.4713,-1.4739,-1.4764,-1.4841,-1.4837,-1.484,-1.483,-1.487,-1.4894,-1.4903,-1.479,-1.479,-1.479,-1.479,0,0,-1.3857,-1.3965,-1.402,-1.4092,-1.414,-1.4179,-1.4247,-1.4297,-1.4398,-1.4429,-1.4424,-1.4571,-1.4623,-1.4722,-1.474,-1.4772,-1.4791,-1.4774,-1.485,-1.4857,-1.4863,-1.4887,-1.4897,-1.479,-1.479,-1.479,-1.479,0,-1.3861,-1.3921,-1.3989,-1.4045,-1.413,-1.4175,-1.4191,-1.4281,-1.4313,-1.4399,-1.4427,-1.4486,-1.4601,-1.4654,-1.4695,-1.4764,-1.478,-1.4783,-1.4802,-1.4848,-1.4855,-1.4861,-1.4886,-1.4894,-1.479,-1.479,-1.479,0,-1.3815,-1.3883,-1.3923,-1.4036,-1.4091,-1.4159,-1.4165,-1.4237,-1.4287,-1.4322,-1.4407,-1.445,-1.4525,-1.461,-1.465,-1.4646,-1.4768,-1.4739,-1.4741,-1.4746,-1.4794,-1.4802,-1.4808,-1.4718,-1.4718,-1.4717,0,0,-1.3809,-1.3878,-1.3969,-1.4041,-1.4074,-1.4143,-1.4184,-1.4217,-1.4285,-1.4312,-1.4369,-1.4433,-1.45,-1.4543,-1.4609,-1.4694,-1.4713,-1.4728,-1.4731,-1.4734,-1.474,-1.4789,-1.4797,-1.4715,-1.4715,-1.4715,0,0,-1.3805,-1.3915,-1.3931,-1.4024,-1.409,-1.4181,-1.4222,-1.4243,-1.431,-1.4309,-1.4362,-1.4382,-1.4462,-1.4503,-1.4472,-1.4606,-1.4595,-1.4603,-1.4577,-1.4582,-1.4585,-1.4574,-1.4485,0,0,0,0,0,-1.3842,-1.3902,-1.3916,-1.3941,-1.4081,-1.4174,-1.4192,-1.424,-1.4232,-1.4264,-1.4314,-1.4329,-1.4498,-1.4472,-1.4494,-1.4527,-1.4692,-1.4696,-1.47,-1.4686,-1.4691,-1.4695,0,0,0,0,0,0,-1.3852,-1.3883,-1.3914,-1.4008,-1.404,-1.4173,-1.417,-1.4184,-1.423,-1.4232,-1.4319,-1.4332,-1.4372,-1.4464,-1.4483,-1.4514,-1.4478,-1.4694,-1.4697,-1.47,-1.4688,-1.4692,-1.4695,0,0,0,0,0,-1.3861,-1.3885,-1.4099,-1.4007,-1.4035,-1.4114,-1.4168,-1.418,-1.4216,-1.4295,-1.4308,-1.4249,-1.4372,-1.4391,-1.4475,-1.4504,-1.4465,-1.4472,-1.4696,-1.4699,-1.4701,-1.469,0,0,0,0,0,0,-1.3867,-1.3896,-1.4106,-1.4116,-1.3989,-1.4107,-1.4128,-1.4176,-1.4276,-1.429,-1.4226,-1.4226,-1.4372,-1.4387,-1.4402,-1.4498,-1.4455,-1.4462,-1.4466,-1.4698,-1.47,-1.4702,0,0,0,0,0,0,-1.3883,-1.3904,-1.4111,-1.4085,-1.4093,-1.4101,-1.4119,-1.4196,-1.4277,-1.4202,-1.4206,-1.4225,-1.4349,-1.4385,-1.4396,-1.4515,-1.4447,-1.4454,-1.4458,-1.4461,-1.47,-1.4702,0,0,0,0,0,0,-1.3893,-1.3911,-1.4083,-1.4089,-1.4095,-1.4213,-1.417,-1.431,-1.4259,-1.4197,-1.4255,-1.4253,-1.4346,-1.4359,-1.4392,-1.4506,-1.4513,-1.4447,-1.4452,-1.4455,-1.4457,0,0,0,0,0,0,0,-1.3901,-1.3768,-1.4046,-1.4092,-1.4097,-1.421,-1.4213,-1.4215,-1.4258,-1.4257,-1.4255,-1.4254,-1.4408,-1.4416,-1.4423,-1.4499,0,0,-1.4446,-1.445,0,0,0,0,0,0,0,0,-1.3761,-1.3766,-1.4046,-1.4048,-1.405,-1.421,-1.4212,-1.4215,-1.4258,-1.4257,-1.4256,-1.4255,-1.441,-1.4416,-1.4422,0,0,0,0,0,0,0,0,0,0,0,0,0,0,0,-1.4046,-1.4048,0,-1.4211,-1.4212,-1.4214,-1.4258,-1.4257,-1.4256,-1.4255,-1.4412,-1.4417,-1.4422,0,0,0,0,0,0,0,0,0,0,0,0,0,0,0,0,0,0,0,0,0,0,0,0,0,0,0,0,0,0,0,0,0,0,0,0,0,0,0,0,0,0,0,0,0,0,0,0,0,0,0,0,0,0,0,0,0,0,0,0,0,0,0,0,0,0,0,0,0]}]]]